CAPE
144 0 0 0 284 434 479 494 365 222 291 123 107 90 259 264 40 1 251 778 1078 1229 1476 1719 1643 1573 1609 1668 1790 1773 1704 1666 1687 1760 1744 1494 1258 1190 1064 1076 986 733 611 232 508 484 333 41 152 68 26 20 11 7 10 10 4 0 0 0 0 0 0 0 0 0 0 0 0 0 0 0 0 0 0 0 0 0 0 0 6 0 0 0 0 0 0
343 349 318 306 425 622 915 999 880 822 494 335 233 296 977 929 762 792 218 939 1130 1308 1529 1784 1720 1646 1724 1809 1836 1789 1696 1746 1784 1716 1490 1237 1144 992 855 855 874 725 460 3 402 307 210 181 143 56 19 23 19 11 10 0 0 0 0 0 0 0 0 0 0 0 0 0 0 0 0 0 0 0 0 2 2 0 0 0 0 14 0 0 0 0 0
424 428 488 470 442 663 956 904 965 973 925 952 1158 1166 1247 1300 1098 1100 957 1134 1191 1384 1609 1847 1744 1787 1850 1838 1783 1744 1760 1767 1677 1452 1146 944 887 849 742 702 763 683 474 398 142 229 205 199 172 52 36 28 10 0 0 0 0 0 0 0 0 0 0 0 0 0 0 0 0 0 0 0 0 0 0 0 0 0 0 0 0 2 0 0 0 0 0
392 484 590 672 647 717 737 733 711 677 709 761 1141 1102 1250 1218 893 1314 1071 879 1151 1457 1702 1869 1840 1862 1828 1758 1711 1714 1727 1622 1408 1058 949 862 910 953 891 724 561 554 493 174 0 171 184 118 89 48 22 8 0 0 0 0 0 0 0 0 0 0 0 0 0 0 0 0 0 0 0 0 0 0 0 0 0 0 0 0 7 0 0 0 0 0 0
422 478 531 406 325 241 319 570 627 701 748 1162 1135 1091 1294 1132 1136 820 698 775 1094 1394 1794 1911 1837 1833 1762 1696 1692 1637 1584 1390 1133 971 918 1067 1037 1053 754 652 490 466 417 297 180 161 104 53 34 9 0 0 0 0 0 0 0 0 0 0 0 0 0 0 0 0 0 0 0 0 0 0 0 0 0 0 0 0 0 30 9 0 0 0 0 0 0
487 432 369 262 195 202 302 516 1004 726 761 1142 1228 1094 1364 1258 1318 982 1064 1094 1276 1488 1806 1792 1819 1778 1694 1641 1578 1465 1242 1074 1032 990 1164 1130 1024 1012 764 618 438 462 329 167 78 42 31 25 7 0 0 0 0 0 0 0 0 0 0 0 0 0 0 0 0 0 0 0 0 0 0 0 0 0 0 0 0 0 17 0 0 0 0 0 0 0 0
421 416 279 197 131 176 534 1174 1206 1060 752 1007 1110 1245 1159 1294 1401 1270 1010 1222 1346 1555 1701 1743 1725 1648 1550 1500 1468 1259 1080 1015 1055 1077 1140 1145 1123 941 688 567 466 446 350 269 58 48 59 25 0 0 0 0 0 0 0 0 0 0 0 0 0 0 0 0 0 1 3 0 0 0 0 0 0 0 0 0 0 0 29 0 0 0 0 0 0 10 0
384 377 244 136 1 745 1200 1180 1168 985 1095 1218 1302 1276 1313 1324 1372 1141 966 1238 1378 1528 1684 1709 1652 1597 1500 1380 1240 1242 1100 1063 1094 1174 1186 1210 1040 866 722 463 480 385 234 172 82 70 35 1 0 0 0 0 0 0 0 0 0 0 0 0 0 0 4 0 4 2 4 3 4 0 0 0 0 0 0 0 0 0 181 0 0 0 0 0 0 0 0
516 361 291 289 852 552 1131 1015 1060 1169 1150 1040 691 478 967 1375 1251 1040 1094 1324 1439 1569 1679 1690 1619 1502 1362 1245 1258 1330 1262 1099 1076 1140 1196 1233 1059 723 684 616 448 359 216 130 57 74 0 0 0 0 0 0 0 0 0 0 0 0 0 0 2 29 10 9 8 8 8 6 2 0 0 0 0 0 0 0 0 66 29 0 0 0 0 0 0 0 0
326 364 530 599 695 678 588 950 1128 1022 1016 994 792 591 943 1026 1086 1037 1188 1400 1524 1584 1657 1667 1577 1470 1278 1144 1250 1246 1257 1242 1091 1037 1100 934 860 692 644 510 324 206 142 77 55 3 0 0 0 0 0 0 0 0 0 0 0 0 0 0 1 18 2 4 12 9 8 5 13 5 0 0 0 0 0 0 0 28 10 0 0 0 0 0 0 0 0
337 350 311 472 354 408 482 710 950 1128 985 949 880 316 322 967 1107 1103 1302 1401 1592 1625 1632 1575 1424 1266 1095 998 1206 1114 1293 1291 1232 1072 877 830 720 666 610 385 0 0 73 87 0 0 0 0 0 0 0 0 0 0 0 0 0 0 0 0 0 2 1 0 4 6 7 3 0 2 0 0 0 0 0 0 0 2 0 0 0 0 0 5 0 0 0
349 348 264 496 386 669 592 628 830 958 933 818 525 236 354 903 1150 1149 1293 1373 1509 1550 1469 1321 1215 1108 922 806 993 970 1288 1369 1245 830 799 655 612 389 382 316 230 162 74 0 0 0 0 0 0 0 0 0 0 0 0 0 0 0 0 0 0 0 0 0 0 7 7 32 7 0 0 0 0 0 0 0 0 0 0 0 0 0 0 0 0 0 0
372 382 450 608 530 718 978 965 890 802 746 597 404 297 608 908 1155 1158 1242 1290 1338 1324 1248 1142 1093 943 757 682 858 839 1086 1166 1020 846 717 626 434 379 354 182 212 27 0 0 0 0 0 0 0 0 0 0 0 0 0 0 0 0 0 0 0 0 0 0 0 0 0 8 16 6 0 0 0 21 26 0 0 0 0 0 0 0 0 0 0 0 0
486 580 602 495 797 1018 1140 980 905 616 558 460 410 423 713 1044 1187 1169 1148 1182 1224 1164 1121 1029 977 841 662 697 782 790 881 977 891 772 622 556 367 350 253 73 0 0 0 0 0 0 0 0 0 0 0 0 0 0 0 0 0 0 0 0 0 0 0 0 0 0 0 0 0 0 0 0 0 0 0 0 0 0 0 0 0 0 0 0 0 0 0
621 810 747 598 594 955 945 1110 958 607 578 748 747 905 898 1183 1216 1190 1122 1149 1186 1104 1056 1026 976 812 749 677 721 781 909 852 768 684 598 394 264 206 115 0 0 0 0 0 0 0 0 0 0 0 0 0 0 0 0 0 0 0 0 0 0 0 0 0 0 0 0 0 90 45 2 6 0 0 0 0 0 0 0 0 0 0 0 0 0 0 0
813 598 426 470 596 1022 1178 893 1061 773 552 927 1002 1038 1120 1250 1243 1229 1132 1118 1102 1084 1052 980 1012 902 848 661 660 934 891 834 628 567 464 293 188 122 0 0 0 0 0 0 0 0 0 0 0 0 0 0 0 0 0 0 0 0 0 0 0 0 5 2 0 0 0 5 0 0 0 0 0 0 0 0 0 0 0 0 0 0 0 0 0 0 0
725 387 880 941 1103 1149 1210 1015 1052 1164 996 930 1115 1069 1159 1265 1278 1252 1131 1070 1034 1022 1004 963 974 922 870 758 773 905 807 763 574 460 390 232 96 24 0 0 0 0 0 0 0 0 0 0 0 0 0 0 0 0 0 0 0 0 0 0 0 0 0 0 0 0 0 0 0 0 0 0 0 0 0 0 0 0 0 0 0 0 0 0 0 0 0
1016 1042 1048 1076 1178 1180 1217 1094 1110 1036 978 1138 1132 1147 1244 1331 1277 1173 1102 1040 1034 963 970 932 926 872 759 714 888 771 748 592 424 395 276 114 14 0 0 0 0 0 0 0 0 0 0 0 0 0 0 0 0 0 0 0 0 0 0 0 0 0 0 0 0 0 0 0 0 0 0 0 0 0 0 0 0 0 0 0 0 0 0 0 0 2 13
885 988 947 1096 1162 1192 1196 1164 1072 1202 1192 1183 1250 1246 1306 1270 1226 1120 1029 1001 1009 969 980 970 898 770 683 823 720 702 626 402 343 267 131 35 0 0 0 0 0 0 0 0 0 0 0 0 0 0 0 0 0 0 0 0 0 0 0 0 3 3 0 0 0 0 0 0 0 0 0 0 0 0 0 0 0 8 5 1 0 0 0 26 22 9 9
718 857 927 1037 1138 1059 989 1021 1150 1117 1221 1278 1273 1252 1244 1204 1180 1075 1023 982 980 986 993 1006 833 665 744 700 634 568 404 316 261 124 30 6 0 0 0 0 0 0 0 0 0 0 0 0 0 0 0 0 0 0 0 0 0 0 0 0 0 0 0 0 0 0 0 0 22 1 0 0 0 0 0 0 0 0 0 0 0 0 0 0 0 2 0
808 839 917 996 1031 1120 1176 1111 1073 1172 1232 1116 1209 1256 1194 1224 1167 1118 1037 1002 1016 980 993 901 632 652 663 592 580 440 301 244 172 62 18 10 0 0 0 0 0 0 0 0 0 0 0 0 0 0 0 0 0 0 0 0 0 0 0 26 158 0 0 0 0 43 0 0 0 0 0 0 0 0 0 0 0 0 0 0 0 0 0 0 0 0 0
697 804 892 840 840 831 1014 1202 1147 1180 1170 1020 1050 1195 1157 1242 1183 1128 1008 1010 973 947 795 618 568 580 555 548 500 318 118 191 128 43 15 0 0 0 0 0 0 0 0 0 0 0 0 0 0 0 0 0 0 0 0 0 0 0 246 117 0 0 0 0 0 2 110 19 6 8 0 0 0 0 4 0 0 0 4 132 185 5 0 0 0 0 0
661 646 798 702 618 532 749 950 1124 1216 1148 976 986 1070 1080 1159 1106 1059 974 962 873 744 570 511 484 474 507 494 381 0 198 174 116 22 0 0 0 0 0 0 0 0 0 0 0 0 0 0 0 0 0 0 0 0 0 0 0 0 22 2 0 0 0 0 6 16 0 0 0 0 0 0 0 0 0 0 0 0 0 24 2 0 0 0 0 0 0
770 688 772 760 719 720 666 790 910 1127 1065 906 915 990 1005 1030 1036 972 929 836 707 557 473 462 401 357 434 417 251 0 50 96 40 6 0 0 0 0 0 0 0 0 0 0 0 0 0 0 0 0 0 0 0 0 0 0 0 0 0 0 0 0 0 0 54 366 78 6 4 0 0 0 0 0 0 0 0 0 0 0 0 0 0 0 0 0 0
871 725 742 794 724 679 630 732 793 796 806 763 811 852 887 905 902 862 812 700 502 320 303 371 313 321 236 240 160 0 0 0 0 0 0 0 0 0 0 0 0 0 0 0 0 0 0 0 0 0 0 0 0 0 0 0 0 0 0 0 0 0 0 0 26 274 390 169 240 42 7 1 0 0 8 8 11 32 28 2 0 0 0 0 0 0 0
824 686 707 734 664 650 686 620 608 662 661 682 722 777 792 814 821 776 700 538 114 0 0 0 0 34 177 33 101 39 0 0 0 0 0 0 0 0 0 0 0 0 0 0 0 0 0 0 0 0 0 0 0 0 0 0 0 0 0 0 0 0 0 0 0 0 0 0 0 0 0 0 0 27 43 64 58 55 65 62 73 23 0 0 0 0 0
775 744 662 678 675 699 733 636 394 574 614 637 705 739 775 785 770 702 522 129 0 0 0 0 0 0 140 124 122 108 45 0 0 0 0 0 0 0 0 0 0 0 0 0 0 0 0 0 0 0 0 0 0 0 0 0 0 0 0 0 0 0 33 200 33 4 12 15 55 47 3 8 13 60 67 74 117 156 146 180 154 113 108 100 47 0 0
791 738 704 724 684 669 528 384 72 496 557 609 636 697 716 724 677 558 388 0 0 0 0 0 85 142 142 111 105 79 40 10 0 0 0 0 0 0 0 0 0 0 0 0 0 0 0 0 0 0 0 0 0 0 0 0 0 0 0 0 0 0 0 0 20 8 6 2 0 0 0 0 2 22 82 241 253 237 140 164 242 164 157 68 20 0 0
753 752 669 567 296 0 16 210 0 7 291 515 530 555 613 614 567 458 236 0 0 0 0 0 68 72 49 0 3 5 0 0 0 0 0 0 0 0 0 0 0 0 0 0 0 0 0 0 0 0 0 0 0 0 0 0 0 0 0 0 0 0 0 0 0 0 0 0 0 0 6 37 60 74 108 153 256 214 195 114 114 109 76 48 26 33 15
756 755 694 592 597 0 0 0 0 0 0 174 415 425 430 471 445 286 0 0 0 0 0 0 0 0 0 0 0 0 0 0 0 0 0 0 0 0 0 0 0 0 0 0 0 0 0 0 0 0 0 0 0 0 0 0 0 0 0 0 0 0 0 0 0 0 0 0 0 28 124 132 162 145 192 161 124 142 167 139 159 186 150 92 180 114 74
726 707 706 670 370 0 0 0 0 0 0 0 0 0 0 0 191 164 0 0 0 0 0 7 2 0 0 0 0 0 0 0 0 0 0 0 0 0 0 0 0 0 0 0 0 0 0 0 0 0 0 0 0 0 0 0 0 0 0 0 0 0 0 0 22 2 0 0 36 48 60 111 86 190 234 224 214 168 120 80 70 48 83 40 16 20 24
638 613 572 522 0 0 0 0 0 0 0 0 0 0 0 112 316 112 0 0 110 89 72 38 10 0 0 0 0 0 0 0 0 0 0 0 0 0 0 0 0 0 0 0 0 0 0 0 0 0 0 0 0 0 0 0 0 0 0 0 0 0 0 14 62 67 83 296 242 212 391 255 173 111 120 154 135 116 72 26 15 16 16 18 32 36 25
430 154 0 0 0 0 0 0 0 0 0 0 0 0 0 85 59 0 74 118 142 127 93 43 16 0 0 0 0 0 0 0 0 0 0 0 0 0 0 0 0 0 0 0 0 0 0 0 0 0 0 0 0 0 0 0 0 0 0 0 0 0 25 43 47 24 98 289 207 185 138 192 179 165 112 180 185 282 116 79 62 56 41 56 34 27 16
0 0 0 0 0 0 0 0 0 0 0 0 0 0 0 0 0 0 81 106 74 33 20 16 8 0 0 0 0 0 0 0 0 0 0 0 0 0 0 0 0 0 0 0 0 0 0 0 0 0 0 0 0 0 0 0 0 0 0 0 0 0 0 0 17 56 68 371 184 348 585 538 416 326 356 280 182 113 106 148 230 243 139 94 54 42 5
0 0 0 0 0 0 0 0 0 0 0 0 0 0 0 0 0 0 0 0 0 0 0 2 0 0 0 0 0 0 0 0 0 0 0 0 0 0 0 0 0 0 0 0 0 0 0 0 0 0 0 0 0 0 0 0 0 0 0 0 0 0 0 0 0 1 20 46 95 43 46 46 59 200 235 268 168 132 114 314 170 160 120 94 59 44 32
0 0 0 0 0 0 0 0 0 0 0 0 0 0 0 0 0 0 0 0 0 0 0 0 0 0 0 0 0 0 0 0 0 0 0 0 0 0 0 0 0 0 0 0 0 0 0 0 0 0 0 0 0 0 0 0 0 0 0 0 0 0 30 43 16 19 136 41 33 53 55 126 217 242 325 236 160 167 111 40 3 1 0 0 4 5 4
0 0 0 0 0 0 0 0 0 0 0 0 0 0 0 0 0 0 0 0 0 0 0 0 0 0 0 0 0 0 0 0 0 0 0 0 0 0 0 0 0 0 0 0 0 0 0 0 0 182 455 23 1 0 0 81 3 0 0 0 0 0 0 2 38 41 20 78 107 98 141 196 119 82 121 146 136 66 10 0 0 0 0 8 32 28 25
0 0 0 0 0 0 0 0 0 0 0 0 0 0 0 0 0 0 0 0 0 0 0 0 0 0 0 0 0 0 0 0 0 0 0 0 0 0 0 0 0 0 0 0 0 0 0 0 45 211 84 92 65 34 71 497 872 187 0 0 0 0 0 1 1 9 16 2 70 44 42 44 40 39 40 28 17 7 4 1 2 1 1 1 4 6 66
0 0 0 0 0 0 0 0 0 0 0 0 0 0 0 0 0 0 0 0 0 0 0 0 0 0 0 0 0 0 0 0 0 0 0 0 0 0 0 0 0 0 0 0 0 0 0 1 30 4 2 5 15 17 64 554 955 886 529 278 228 206 95 0 0 0 2 2 6 4 8 15 25 39 35 1 1 3 35 26 13 37 23 17 0 0 0
0 0 0 0 0 0 0 0 0 0 0 0 0 0 0 0 0 0 0 0 0 0 0 0 0 0 0 0 0 0 0 0 0 0 0 0 0 0 0 0 0 0 0 0 0 0 0 58 100 2 1 3 2 1 6 54 337 256 26 0 0 0 0 0 0 0 0 0 0 118 49 42 42 35 25 4 3 5 4 3 2 2 3 0 0 0 0
0 0 0 0 0 0 0 0 0 0 0 0 0 0 0 0 0 0 0 0 0 0 0 0 0 0 0 0 0 0 0 0 0 0 0 0 0 0 0 0 0 0 0 0 0 2 30 149 138 45 10 1 0 2 0 56 184 23 2 0 0 0 0 0 0 0 0 0 0 0 0 3 17 43 33 17 0 5 6 2 0 0 0 0 0 0 0
0 0 0 0 0 0 0 0 0 0 0 0 0 0 0 0 0 0 0 0 0 0 0 0 0 0 0 0 0 0 0 0 0 0 0 0 0 0 0 0 0 0 0 0 18 29 31 79 248 416 25 0 0 70 316 84 2 0 0 0 0 12 6 2 7 2 0 0 0 0 1 4 7 2 0 2 1 2 3 0 0 0 0 0 0 0 0
0 0 0 0 0 0 0 0 0 0 0 0 0 0 0 0 0 0 0 0 0 0 0 0 0 0 0 0 0 0 0 0 0 0 0 0 0 0 0 0 0 0 0 38 10 0 7 6 6 20 362 243 37 72 638 551 131 10 2 2 70 6 1 0 0 0 0 0 0 0 1 2 2 1 0 0 1 2 0 0 0 0 0 0 2 3 2
0 0 0 0 0 0 0 0 0 0 0 0 0 0 0 0 0 0 0 0 0 0 0 0 0 0 0 0 0 0 0 0 0 0 0 0 0 0 0 0 0 0 20 72 78 17 1 4 2 33 326 970 1018 982 531 65 11 6 4 4 0 7 5 0 0 0 0 0 0 0 0 2 2 0 2 2 3 2 2 0 0 0 3 9 8 6 5
0 0 0 0 0 0 0 0 0 0 0 0 0 0 0 0 0 0 0 0 0 0 0 0 0 0 0 0 0 0 0 0 0 0 0 0 0 0 0 0 1 1 9 247 164 80 33 10 51 328 526 880 1242 1565 1136 441 119 30 4 0 9 47 79 44 0 0 0 0 0 0 1 0 0 1 4 7 8 7 6 2 3 5 9 9 8 8 10
0 0 0 0 0 0 0 0 0 0 0 0 0 0 0 0 0 0 0 0 0 0 0 0 0 0 0 0 0 0 0 0 0 0 0 0 0 0 0 6 0 9 42 174 269 214 68 208 519 720 1025 1208 1240 1275 984 652 394 190 138 146 210 265 224 116 68 6 0 0 0 0 0 0 0 2 6 7 6 7 4 2 2 4 8 11 10 7 7
0 0 0 0 0 0 0 0 0 0 0 0 0 0 0 0 0 0 0 0 0 0 0 0 0 0 0 0 0 0 0 0 0 0 0 0 0 3 36 292 328 282 361 307 200 226 113 180 814 1234 1236 1447 1546 1337 903 635 488 371 280 228 197 144 103 86 91 101 102 90 78 66 50 16 1 4 6 8 10 6 2 0 4 7 12 10 9 6 6
0 0 0 0 0 0 0 0 0 0 0 0 0 0 0 0 0 0 0 0 0 0 0 0 0 0 0 0 0 0 0 0 0 0 0 0 0 0 0 0 19 649 918 1063 954 908 794 634 977 769 789 1367 1543 1178 680 261 37 10 4 4 11 61 68 80 104 134 131 94 62 47 46 49 48 10 4 3 4 1 0 1 8 14 16 14 10 6 3
0 0 0 0 0 0 0 0 0 0 0 0 0 0 0 0 0 0 0 0 0 0 0 0 0 0 0 0 0 0 0 0 0 0 0 0 0 0 0 4 296 614 968 849 582 479 828 809 710 674 626 1030 684 222 122 131 125 123 106 75 30 42 64 38 65 43 0 62 66 71 80 77 63 31 0 0 0 0 0 2 9 16 14 1 1 0 0
0 0 0 0 0 0 0 0 0 0 0 0 0 0 0 0 0 0 0 0 0 4 0 0 0 0 0 0 0 0 0 0 0 0 0 196 272 326 343 356 373 347 706 645 628 568 784 990 958 926 962 678 435 299 211 187 202 210 180 141 111 96 80 19 18 22 14 48 55 59 61 64 73 86 100 116 124 116 91 27 8 10 1 0 0 0 1
0 0 0 0 0 0 0 0 0 0 0 0 0 0 0 0 0 0 0 0 0 5 0 0 0 0 0 0 0 0 0 0 0 93 40 184 308 340 372 399 426 447 472 569 645 584 496 454 436 436 793 905 662 539 429 350 274 220 168 130 118 115 112 98 60 26 22 32 54 35 57 62 75 86 102 132 148 149 137 119 4 2 0 2 3 3 2
0 0 0 0 98 67 7 0 0 0 0 0 0 0 0 0 0 0 0 349 0 0 0 0 0 0 0 0 0 0 0 0 149 247 426 371 414 441 460 573 474 485 508 549 568 518 388 169 124 277 252 110 127 179 216 342 211 164 128 114 107 105 87 82 61 14 12 14 14 9 3 40 7 8 74 116 138 139 14 10 5 1 0 2 1 0 2
Wind_Speed
12 nan nan nan 13 15 19 22 21 20 19 23 23 nan 22 21 nan nan 18 25 26 24 29 32 35 38 40 39 39 38 38 38 39 39 38 38 39 40 38 37 36 37 38 36 36 36 36 nan 38 nan nan nan nan nan nan nan nan nan nan nan nan nan nan nan nan nan nan nan nan nan nan nan nan nan nan nan nan nan nan nan nan nan nan nan nan nan nan
16 17 15 10 13 15 21 25 24 21 24 25 27 25 22 24 23 20 23 28 29 25 31 35 37 39 39 37 37 36 36 37 37 36 37 36 39 38 37 35 34 34 36 nan 38 37 37 37 38 nan nan nan nan nan nan nan nan nan nan nan nan nan nan nan nan nan nan nan nan nan nan nan nan nan nan nan nan nan nan nan nan nan nan nan nan nan nan
13 16 17 16 13 18 22 23 25 25 24 28 26 25 24 26 29 29 32 32 31 27 33 40 40 41 38 38 37 35 34 35 35 35 36 36 38 38 38 35 34 35 35 37 38 38 37 37 38 nan nan nan nan nan nan nan nan nan nan nan nan nan nan nan nan nan nan nan nan nan nan nan nan nan nan nan nan nan nan nan nan nan nan nan nan nan nan
12 12 17 13 16 22 24 22 21 23 25 27 24 25 24 27 28 30 33 32 30 33 41 43 43 41 40 39 35 32 31 33 34 35 35 36 37 37 37 36 35 36 36 37 nan 37 36 36 nan nan nan nan nan nan nan nan nan nan nan nan nan nan nan nan nan nan nan nan nan nan nan nan nan nan nan nan nan nan nan nan nan nan nan nan nan nan nan
14 11 14 16 17 21 20 16 15 16 19 20 22 23 27 28 31 35 33 30 33 40 42 43 38 39 36 35 33 33 33 32 33 34 35 36 36 37 37 36 35 35 36 35 35 34 35 nan nan nan nan nan nan nan nan nan nan nan nan nan nan nan nan nan nan nan nan nan nan nan nan nan nan nan nan nan nan nan nan nan nan nan nan nan nan nan nan
15 14 16 16 17 15 12 13 13 14 17 21 23 24 26 26 30 29 31 34 40 42 38 38 37 36 33 32 31 30 31 32 32 34 35 36 36 35 34 33 34 34 32 31 nan nan nan nan nan nan nan nan nan nan nan nan nan nan nan nan nan nan nan nan nan nan nan nan nan nan nan nan nan nan nan nan nan nan nan nan nan nan nan nan nan nan nan
19 17 18 18 13 10 11 10 11 13 17 25 27 25 25 25 27 31 34 37 39 34 29 29 32 32 33 32 33 31 29 30 31 35 37 36 35 32 32 31 32 33 32 32 nan nan nan nan nan nan nan nan nan nan nan nan nan nan nan nan nan nan nan nan nan nan nan nan nan nan nan nan nan nan nan nan nan nan nan nan nan nan nan nan nan nan nan
22 20 17 15 nan 10 12 14 17 20 26 25 27 24 22 22 24 29 32 33 32 31 31 30 29 33 35 32 26 29 31 31 34 36 35 34 33 32 32 32 32 31 32 35 nan nan nan nan nan nan nan nan nan nan nan nan nan nan nan nan nan nan nan nan nan nan nan nan nan nan nan nan nan nan nan nan nan nan 20 nan nan nan nan nan nan nan nan
23 18 15 9 9 12 14 17 17 20 22 22 22 21 19 22 24 25 32 32 31 31 30 32 33 33 33 30 25 25 30 33 35 37 34 33 31 32 32 33 31 31 33 36 nan nan nan nan nan nan nan nan nan nan nan nan nan nan nan nan nan nan nan nan nan nan nan nan nan nan nan nan nan nan nan nan nan nan nan nan nan nan nan nan nan nan nan
23 21 16 13 13 8 5 8 11 16 18 21 20 23 18 20 23 25 33 33 33 32 32 33 35 33 32 28 25 28 33 37 37 34 33 32 32 33 32 30 31 32 33 nan nan nan nan nan nan nan nan nan nan nan nan nan nan nan nan nan nan nan nan nan nan nan nan nan nan nan nan nan nan nan nan nan nan nan nan nan nan nan nan nan nan nan nan
23 21 19 14 14 5 8 8 10 12 15 20 21 20 15 17 27 27 30 33 29 31 35 35 34 30 28 26 27 30 34 36 37 35 33 33 34 33 33 32 nan nan nan nan nan nan nan nan nan nan nan nan nan nan nan nan nan nan nan nan nan nan nan nan nan nan nan nan nan nan nan nan nan nan nan nan nan nan nan nan nan nan nan nan nan nan nan
20 24 21 15 14 14 14 10 11 14 21 22 21 19 17 20 28 30 30 31 30 28 32 35 31 31 29 27 29 33 35 35 35 33 33 35 34 31 30 31 34 34 nan nan nan nan nan nan nan nan nan nan nan nan nan nan nan nan nan nan nan nan nan nan nan nan nan nan nan nan nan nan nan nan nan nan nan nan nan nan nan nan nan nan nan nan nan
24 26 19 17 14 14 14 13 15 20 22 24 23 23 20 25 30 29 27 28 29 32 34 32 30 23 23 27 35 36 36 35 31 30 32 34 32 30 32 34 33 nan nan nan nan nan nan nan nan nan nan nan nan nan nan nan nan nan nan nan nan nan nan nan nan nan nan nan nan nan nan nan nan nan nan nan nan nan nan nan nan nan nan nan nan nan nan
30 25 27 19 16 15 20 18 20 19 22 22 22 21 24 33 30 26 25 28 27 32 33 28 25 27 29 35 35 36 35 32 31 32 33 31 27 26 28 nan nan nan nan nan nan nan nan nan nan nan nan nan nan nan nan nan nan nan nan nan nan nan nan nan nan nan nan nan nan nan nan nan nan nan nan nan nan nan nan nan nan nan nan nan nan nan nan
32 31 31 26 23 21 22 24 21 21 23 21 23 27 25 26 29 28 25 28 30 32 31 29 31 32 32 35 36 35 33 32 32 33 32 29 28 30 31 nan nan nan nan nan nan nan nan nan nan nan nan nan nan nan nan nan nan nan nan nan nan nan nan nan nan nan nan nan nan nan nan nan nan nan nan nan nan nan nan nan nan nan nan nan nan nan nan
31 31 30 27 24 23 22 23 23 21 23 23 26 24 21 19 24 27 29 26 31 32 34 34 32 33 35 33 34 33 30 31 31 32 28 26 26 28 nan nan nan nan nan nan nan nan nan nan nan nan nan nan nan nan nan nan nan nan nan nan nan nan nan nan nan nan nan nan nan nan nan nan nan nan nan nan nan nan nan nan nan nan nan nan nan nan nan
26 26 26 26 23 23 24 27 25 23 21 21 19 20 23 24 21 24 30 31 30 32 33 33 34 33 32 34 33 31 31 32 32 29 27 27 nan nan nan nan nan nan nan nan nan nan nan nan nan nan nan nan nan nan nan nan nan nan nan nan nan nan nan nan nan nan nan nan nan nan nan nan nan nan nan nan nan nan nan nan nan nan nan nan nan nan nan
21 23 25 24 27 27 29 30 28 27 24 21 23 27 25 20 25 27 31 32 33 32 33 35 31 33 35 33 31 30 31 31 28 25 24 24 nan nan nan nan nan nan nan nan nan nan nan nan nan nan nan nan nan nan nan nan nan nan nan nan nan nan nan nan nan nan nan nan nan nan nan nan nan nan nan nan nan nan nan nan nan nan nan nan nan nan nan
21 21 22 27 24 27 29 31 29 28 24 22 21 24 25 26 27 28 29 35 35 34 32 34 34 34 33 31 29 30 31 30 27 25 25 nan nan nan nan nan nan nan nan nan nan nan nan nan nan nan nan nan nan nan nan nan nan nan nan nan nan nan nan nan nan nan nan nan nan nan nan nan nan nan nan nan nan nan nan nan nan nan nan nan nan nan nan
21 18 19 22 23 26 29 30 28 27 26 24 22 21 24 27 27 31 33 35 35 33 31 32 36 34 30 31 30 30 28 26 24 23 nan nan nan nan nan nan nan nan nan nan nan nan nan nan nan nan nan nan nan nan nan nan nan nan nan nan nan nan nan nan nan nan nan nan nan nan nan nan nan nan nan nan nan nan nan nan nan nan nan nan nan nan nan
20 19 20 22 27 31 29 27 26 23 25 29 26 27 29 32 33 32 30 32 35 32 32 32 34 33 28 30 32 30 25 23 22 nan nan nan nan nan nan nan nan nan nan nan nan nan nan nan nan nan nan nan nan nan nan nan nan nan nan nan 18 nan nan nan nan nan nan nan nan nan nan nan nan nan nan nan nan nan nan nan nan nan nan nan nan nan nan
22 20 19 21 28 22 23 22 22 23 22 29 30 29 31 32 33 33 34 29 26 30 34 34 32 32 28 28 30 29 25 23 22 nan nan nan nan nan nan nan nan nan nan nan nan nan nan nan nan nan nan nan nan nan nan nan nan nan 18 18 nan nan nan nan nan nan 20 nan nan nan nan nan nan nan nan nan nan nan nan 21 23 nan nan nan nan nan nan
18 14 15 20 21 22 19 20 21 21 21 28 31 29 29 28 30 33 35 32 30 29 27 29 31 30 30 29 26 nan 22 21 23 nan nan nan nan nan nan nan nan nan nan nan nan nan nan nan nan nan nan nan nan nan nan nan nan nan nan nan nan nan nan nan nan nan nan nan nan nan nan nan nan nan nan nan nan nan nan nan nan nan nan nan nan nan nan
15 15 19 20 20 20 20 20 21 21 20 24 27 24 26 29 30 29 32 33 34 29 28 24 26 32 30 28 25 nan nan nan nan nan nan nan nan nan nan nan nan nan nan nan nan nan nan nan nan nan nan nan nan nan nan nan nan nan nan nan nan nan nan nan nan 17 nan nan nan nan nan nan nan nan nan nan nan nan nan nan nan nan nan nan nan nan nan
15 15 19 19 22 23 22 22 22 21 20 20 26 25 27 26 24 26 29 28 30 33 28 25 23 26 31 25 22 nan nan nan nan nan nan nan nan nan nan nan nan nan nan nan nan nan nan nan nan nan nan nan nan nan nan nan nan nan nan nan nan nan nan nan nan 17 18 20 20 nan nan nan nan nan nan nan nan nan nan nan nan nan nan nan nan nan nan
19 21 22 22 22 22 20 24 23 21 21 22 24 22 21 23 25 25 27 28 25 nan nan nan nan nan 25 nan 19 nan nan nan nan nan nan nan nan nan nan nan nan nan nan nan nan nan nan nan nan nan nan nan nan nan nan nan nan nan nan nan nan nan nan nan nan nan nan nan nan nan nan nan nan nan nan nan nan nan nan nan nan nan nan nan nan nan nan
17 20 25 24 21 19 18 18 17 17 21 20 24 24 23 23 25 24 23 21 nan nan nan nan nan nan 18 18 21 20 nan nan nan nan nan nan nan nan nan nan nan nan nan nan nan nan nan nan nan nan nan nan nan nan nan nan nan nan nan nan nan nan nan 16 nan nan nan nan nan nan nan nan nan nan nan nan 23 22 22 20 19 21 22 20 nan nan nan
16 13 15 18 14 14 17 18 nan 22 21 23 24 25 24 24 25 26 25 nan nan nan nan nan nan 25 22 18 20 nan nan nan nan nan nan nan nan nan nan nan nan nan nan nan nan nan nan nan nan nan nan nan nan nan nan nan nan nan nan nan nan nan nan nan nan nan nan nan nan nan nan nan nan nan nan 23 22 21 20 20 21 22 20 nan nan nan nan
14 15 17 19 22 nan nan 20 nan nan 23 20 21 23 25 26 23 24 22 nan nan nan nan nan nan nan nan nan nan nan nan nan nan nan nan nan nan nan nan nan nan nan nan nan nan nan nan nan nan nan nan nan nan nan nan nan nan nan nan nan nan nan nan nan nan nan nan nan nan nan nan nan nan nan 23 22 22 21 20 20 21 21 nan nan nan nan nan
16 18 23 23 22 nan nan nan nan nan nan 22 24 21 23 28 24 20 nan nan nan nan nan nan nan nan nan nan nan nan nan nan nan nan nan nan nan nan nan nan nan nan nan nan nan nan nan nan nan nan nan nan nan nan nan nan nan nan nan nan nan nan nan nan nan nan nan nan nan nan 21 21 22 23 23 23 22 22 21 22 21 22 22 nan 25 25 nan
20 20 23 22 22 nan nan nan nan nan nan nan nan nan nan nan 24 21 nan nan nan nan nan nan nan nan nan nan nan nan nan nan nan nan nan nan nan nan nan nan nan nan nan nan nan nan nan nan nan nan nan nan nan nan nan nan nan nan nan nan nan nan nan nan nan nan nan nan nan nan nan 21 nan 22 23 22 22 22 24 nan nan nan nan nan nan nan nan
25 23 23 20 nan nan nan nan nan nan nan nan nan nan nan 23 21 22 nan nan 22 nan nan nan nan nan nan nan nan nan nan nan nan nan nan nan nan nan nan nan nan nan nan nan nan nan nan nan nan nan nan nan nan nan nan nan nan nan nan nan nan nan nan nan nan nan nan 21 21 21 22 21 21 23 23 22 22 22 nan nan nan nan nan nan nan nan nan
25 22 nan nan nan nan nan nan nan nan nan nan nan nan nan nan nan nan nan 22 22 19 nan nan nan nan nan nan nan nan nan nan nan nan nan nan nan nan nan nan nan nan nan nan nan nan nan nan nan nan nan nan nan nan nan nan nan nan nan nan nan nan nan nan nan nan nan 20 21 22 22 22 21 21 21 21 22 22 22 nan nan nan nan nan nan nan nan
nan nan nan nan nan nan nan nan nan nan nan nan nan nan nan nan nan nan nan 19 nan nan nan nan nan nan nan nan nan nan nan nan nan nan nan nan nan nan nan nan nan nan nan nan nan nan nan nan nan nan nan nan nan nan nan nan nan nan nan nan nan nan nan nan nan nan nan 20 21 22 22 21 21 21 21 21 21 21 21 21 21 21 21 nan nan nan nan
nan nan nan nan nan nan nan nan nan nan nan nan nan nan nan nan nan nan nan nan nan nan nan nan nan nan nan nan nan nan nan nan nan nan nan nan nan nan nan nan nan nan nan nan nan nan nan nan nan nan nan nan nan nan nan nan nan nan nan nan nan nan nan nan nan nan nan nan nan nan nan nan nan 21 21 21 21 21 21 21 21 20 20 nan nan nan nan
nan nan nan nan nan nan nan nan nan nan nan nan nan nan nan nan nan nan nan nan nan nan nan nan nan nan nan nan nan nan nan nan nan nan nan nan nan nan nan nan nan nan nan nan nan nan nan nan nan nan nan nan nan nan nan nan nan nan nan nan nan nan nan nan nan nan 22 nan nan nan nan 22 21 21 21 21 21 21 22 nan nan nan nan nan nan nan nan
nan nan nan nan nan nan nan nan nan nan nan nan nan nan nan nan nan nan nan nan nan nan nan nan nan nan nan nan nan nan nan nan nan nan nan nan nan nan nan nan nan nan nan nan nan nan nan nan nan 20 19 nan nan nan nan nan nan nan nan nan nan nan nan nan nan nan nan nan 23 nan 22 21 20 nan 20 21 21 nan nan nan nan nan nan nan nan nan nan
nan nan nan nan nan nan nan nan nan nan nan nan nan nan nan nan nan nan nan nan nan nan nan nan nan nan nan nan nan nan nan nan nan nan nan nan nan nan nan nan nan nan nan nan nan nan nan nan nan 19 nan nan nan nan nan 17 20 23 nan nan nan nan nan nan nan nan nan nan nan nan nan nan nan nan nan nan nan nan nan nan nan nan nan nan nan nan nan
nan nan nan nan nan nan nan nan nan nan nan nan nan nan nan nan nan nan nan nan nan nan nan nan nan nan nan nan nan nan nan nan nan nan nan nan nan nan nan nan nan nan nan nan nan nan nan nan nan nan nan nan nan nan nan 18 19 24 26 25 24 24 nan nan nan nan nan nan nan nan nan nan nan nan nan nan nan nan nan nan nan nan nan nan nan nan nan
nan nan nan nan nan nan nan nan nan nan nan nan nan nan nan nan nan nan nan nan nan nan nan nan nan nan nan nan nan nan nan nan nan nan nan nan nan nan nan nan nan nan nan nan nan nan nan nan 21 nan nan nan nan nan nan nan 22 25 nan nan nan nan nan nan nan nan nan nan nan 22 nan nan nan nan nan nan nan nan nan nan nan nan nan nan nan nan nan
nan nan nan nan nan nan nan nan nan nan nan nan nan nan nan nan nan nan nan nan nan nan nan nan nan nan nan nan nan nan nan nan nan nan nan nan nan nan nan nan nan nan nan nan nan nan nan 22 22 nan nan nan nan nan nan nan 23 nan nan nan nan nan nan nan nan nan nan nan nan nan nan nan nan nan nan nan nan nan nan nan nan nan nan nan nan nan nan
nan nan nan nan nan nan nan nan nan nan nan nan nan nan nan nan nan nan nan nan nan nan nan nan nan nan nan nan nan nan nan nan nan nan nan nan nan nan nan nan nan nan nan nan nan nan nan nan 22 22 nan nan nan nan 23 nan nan nan nan nan nan nan nan nan nan nan nan nan nan nan nan nan nan nan nan nan nan nan nan nan nan nan nan nan nan nan nan
nan nan nan nan nan nan nan nan nan nan nan nan nan nan nan nan nan nan nan nan nan nan nan nan nan nan nan nan nan nan nan nan nan nan nan nan nan nan nan nan nan nan nan nan nan nan nan nan nan nan 23 24 nan nan 23 24 26 nan nan nan nan nan nan nan nan nan nan nan nan nan nan nan nan nan nan nan nan nan nan nan nan nan nan nan nan nan nan
nan nan nan nan nan nan nan nan nan nan nan nan nan nan nan nan nan nan nan nan nan nan nan nan nan nan nan nan nan nan nan nan nan nan nan nan nan nan nan nan nan nan nan nan nan nan nan nan nan nan 25 27 26 25 24 nan nan nan nan nan nan nan nan nan nan nan nan nan nan nan nan nan nan nan nan nan nan nan nan nan nan nan nan nan nan nan nan
nan nan nan nan nan nan nan nan nan nan nan nan nan nan nan nan nan nan nan nan nan nan nan nan nan nan nan nan nan nan nan nan nan nan nan nan nan nan nan nan nan nan nan 21 23 nan nan nan nan 25 25 26 26 26 24 24 25 nan nan nan nan nan nan nan nan nan nan nan nan nan nan nan nan nan nan nan nan nan nan nan nan nan nan nan nan nan nan
nan nan nan nan nan nan nan nan nan nan nan nan nan nan nan nan nan nan nan nan nan nan nan nan nan nan nan nan nan nan nan nan nan nan nan nan nan nan nan nan nan nan nan 22 22 22 nan 23 23 24 24 25 25 24 24 24 24 23 24 25 25 27 27 28 nan nan nan nan nan nan nan nan nan nan nan nan nan nan nan nan nan nan nan nan nan nan nan
nan nan nan nan nan nan nan nan nan nan nan nan nan nan nan nan nan nan nan nan nan nan nan nan nan nan nan nan nan nan nan nan nan nan nan nan nan nan nan 20 21 21 20 20 22 21 21 21 21 23 24 24 24 24 24 24 24 24 24 25 25 26 26 nan nan 27 27 nan nan nan nan nan nan nan nan nan nan nan nan nan nan nan nan nan nan nan nan
nan nan nan nan nan nan nan nan nan nan nan nan nan nan nan nan nan nan nan nan nan nan nan nan nan nan nan nan nan nan nan nan nan nan nan nan nan nan nan nan nan 19 19 19 19 20 21 22 22 23 24 25 23 23 24 23 nan nan nan nan nan nan nan nan 25 26 25 nan nan nan nan nan nan nan nan nan nan nan nan nan nan nan nan nan nan nan nan
nan nan nan nan nan nan nan nan nan nan nan nan nan nan nan nan nan nan nan nan nan nan nan nan nan nan nan nan nan nan nan nan nan nan nan nan nan nan nan nan 16 16 16 18 18 17 18 20 21 22 23 23 23 23 23 23 23 24 24 nan nan nan nan nan nan nan nan nan nan nan nan nan nan nan nan nan nan nan nan nan nan nan nan nan nan nan nan
nan nan nan nan nan nan nan nan nan nan nan nan nan nan nan nan nan nan nan nan nan nan nan nan nan nan nan nan nan nan nan nan nan nan nan 19 20 19 18 18 17 17 17 18 18 18 17 19 20 21 22 22 23 23 23 23 24 24 24 24 23 nan nan nan nan nan nan nan nan nan nan nan nan nan 25 26 26 27 nan nan nan nan nan nan nan nan nan
nan nan nan nan nan nan nan nan nan nan nan nan nan nan nan nan nan nan nan nan nan nan nan nan nan nan nan nan nan nan nan nan nan nan nan 19 19 19 18 18 18 17 17 18 19 19 19 19 20 21 22 23 23 23 24 24 24 24 24 24 24 24 23 nan nan nan nan nan nan nan nan nan nan nan 24 25 26 26 27 27 nan nan nan nan nan nan nan
nan nan nan nan nan nan nan nan nan nan nan nan nan nan nan nan nan nan nan 20 nan nan nan nan nan nan nan nan nan nan nan nan 20 19 19 20 20 19 18 18 18 18 18 19 19 19 20 20 21 22 23 23 23 23 23 24 24 24 25 25 25 26 nan nan nan nan nan nan nan nan nan nan nan nan nan 26 27 27 nan nan nan nan nan nan nan nan nan
Wind_Direction
205 nan nan nan 242 234 238 242 240 245 246 249 254 nan 266 263 nan nan 276 294 289 284 298 304 308 311 313 310 308 307 308 303 301 302 302 302 302 301 302 304 305 305 306 307 308 309 309 nan 312 nan nan nan nan nan nan nan nan nan nan nan nan nan nan nan nan nan nan nan nan nan nan nan nan nan nan nan nan nan nan nan nan nan nan nan nan nan nan
222 210 218 217 256 238 230 228 234 237 249 255 263 265 259 261 262 267 275 278 278 286 293 306 309 310 311 309 307 307 305 304 303 302 303 302 302 302 304 306 306 306 306 nan 312 313 313 314 317 nan nan nan nan nan nan nan nan nan nan nan nan nan nan nan nan nan nan nan nan nan nan nan nan nan nan nan nan nan nan nan nan nan nan nan nan nan nan
224 215 214 223 231 249 245 234 239 239 244 250 250 256 254 260 259 257 269 275 276 282 292 298 300 302 305 308 311 310 305 303 302 302 305 304 305 306 308 310 308 306 307 310 313 315 317 319 318 nan nan nan nan nan nan nan nan nan nan nan nan nan nan nan nan nan nan nan nan nan nan nan nan nan nan nan nan nan nan nan nan nan nan nan nan nan nan
237 224 221 216 232 240 247 243 240 237 238 246 247 255 257 263 269 272 274 278 286 290 293 295 298 302 307 310 308 304 302 303 303 306 307 308 308 310 313 311 309 309 312 314 nan 317 319 319 nan nan nan nan nan nan nan nan nan nan nan nan nan nan nan nan nan nan nan nan nan nan nan nan nan nan nan nan nan nan nan nan nan nan nan nan nan nan nan
267 256 235 210 217 233 234 243 245 246 252 254 259 260 262 270 280 278 282 290 295 301 301 298 301 303 303 304 305 303 304 305 308 310 311 311 311 312 313 313 310 313 316 317 316 317 319 nan nan nan nan nan nan nan nan nan nan nan nan nan nan nan nan nan nan nan nan nan nan nan nan nan nan nan nan nan nan nan nan nan nan nan nan nan nan nan nan
283 264 224 221 235 243 255 259 260 266 261 271 268 268 268 270 276 284 288 292 297 302 304 304 308 307 304 301 299 299 305 309 311 311 312 313 313 312 311 311 311 313 315 316 nan nan nan nan nan nan nan nan nan nan nan nan nan nan nan nan nan nan nan nan nan nan nan nan nan nan nan nan nan nan nan nan nan nan nan nan nan nan nan nan nan nan nan
282 264 244 237 242 255 258 240 256 283 277 277 279 277 278 279 281 282 286 294 299 297 293 296 296 293 295 297 303 303 307 309 308 310 313 314 313 311 311 310 313 316 318 318 nan nan nan nan nan nan nan nan nan nan nan nan nan nan nan nan nan nan nan nan nan nan nan nan nan nan nan nan nan nan nan nan nan nan nan nan nan nan nan nan nan nan nan
269 267 259 256 nan 249 237 244 252 269 274 280 279 278 285 293 303 304 295 297 292 291 292 291 291 296 299 296 291 302 307 308 309 312 315 314 313 313 316 315 318 319 321 322 nan nan nan nan nan nan nan nan nan nan nan nan nan nan nan nan nan nan nan nan nan nan nan nan nan nan nan nan nan nan nan nan nan nan 354 nan nan nan nan nan nan nan nan
282 283 273 264 235 232 252 255 266 282 282 294 289 291 299 304 304 304 300 297 294 292 293 293 296 300 300 298 292 294 303 306 309 312 312 312 311 314 316 319 321 323 323 322 nan nan nan nan nan nan nan nan nan nan nan nan nan nan nan nan nan nan nan nan nan nan nan nan nan nan nan nan nan nan nan nan nan nan nan nan nan nan nan nan nan nan nan
274 280 257 248 243 253 254 294 272 279 288 293 293 289 296 299 301 303 304 303 299 296 296 299 303 305 299 303 303 301 302 302 303 306 308 309 312 314 315 317 319 323 323 nan nan nan nan nan nan nan nan nan nan nan nan nan nan nan nan nan nan nan nan nan nan nan nan nan nan nan nan nan nan nan nan nan nan nan nan nan nan nan nan nan nan nan nan
263 264 275 277 281 280 295 302 298 290 293 291 290 282 293 303 307 307 305 303 302 303 305 307 310 306 309 313 309 310 307 306 306 309 311 312 314 316 317 318 nan nan nan nan nan nan nan nan nan nan nan nan nan nan nan nan nan nan nan nan nan nan nan nan nan nan nan nan nan nan nan nan nan nan nan nan nan nan nan nan nan nan nan nan nan nan nan
267 279 275 284 286 272 259 274 274 286 290 282 279 286 297 309 312 308 307 306 306 304 307 311 314 314 313 319 316 314 313 312 311 314 313 311 312 314 313 315 319 321 nan nan nan nan nan nan nan nan nan nan nan nan nan nan nan nan nan nan nan nan nan nan nan nan nan nan nan nan nan nan nan nan nan nan nan nan nan nan nan nan nan nan nan nan nan
265 270 267 265 269 276 275 276 278 285 285 279 285 298 301 310 311 310 306 306 306 308 312 318 315 308 306 305 307 310 310 307 304 304 307 312 313 314 319 319 322 nan nan nan nan nan nan nan nan nan nan nan nan nan nan nan nan nan nan nan nan nan nan nan nan nan nan nan nan nan nan nan nan nan nan nan nan nan nan nan nan nan nan nan nan nan nan
266 268 269 278 281 290 283 269 284 285 278 281 291 299 294 305 307 305 302 303 307 310 313 307 299 301 299 302 305 308 309 305 303 304 306 306 306 313 318 nan nan nan nan nan nan nan nan nan nan nan nan nan nan nan nan nan nan nan nan nan nan nan nan nan nan nan nan nan nan nan nan nan nan nan nan nan nan nan nan nan nan nan nan nan nan nan nan
254 255 260 260 268 272 277 278 264 271 279 291 296 292 282 291 298 298 298 302 303 303 298 296 300 299 300 306 310 310 308 304 305 308 310 313 316 320 320 nan nan nan nan nan nan nan nan nan nan nan nan nan nan nan nan nan nan nan nan nan nan nan nan nan nan nan nan nan nan nan nan nan nan nan nan nan nan nan nan nan nan nan nan nan nan nan nan
261 259 262 262 263 266 264 265 271 279 286 293 303 295 283 279 289 293 293 295 301 301 300 301 301 304 306 306 308 308 306 306 306 309 308 309 314 316 nan nan nan nan nan nan nan nan nan nan nan nan nan nan nan nan nan nan nan nan nan nan nan nan nan nan nan nan nan nan nan nan nan nan nan nan nan nan nan nan nan nan nan nan nan nan nan nan nan
250 251 251 253 260 266 265 270 272 280 286 292 296 292 297 295 286 288 293 298 297 300 300 301 306 309 312 313 315 312 311 310 311 312 312 316 nan nan nan nan nan nan nan nan nan nan nan nan nan nan nan nan nan nan nan nan nan nan nan nan nan nan nan nan nan nan nan nan nan nan nan nan nan nan nan nan nan nan nan nan nan nan nan nan nan nan nan
244 247 250 254 253 256 257 263 273 283 286 285 290 291 285 282 294 301 302 303 302 303 304 303 309 312 315 312 312 308 307 307 307 305 306 309 nan nan nan nan nan nan nan nan nan nan nan nan nan nan nan nan nan nan nan nan nan nan nan nan nan nan nan nan nan nan nan nan nan nan nan nan nan nan nan nan nan nan nan nan nan nan nan nan nan nan nan
249 249 238 246 251 255 258 265 268 270 274 280 286 289 287 290 292 290 298 306 308 308 308 307 311 312 314 311 309 308 307 309 311 312 315 nan nan nan nan nan nan nan nan nan nan nan nan nan nan nan nan nan nan nan nan nan nan nan nan nan nan nan nan nan nan nan nan nan nan nan nan nan nan nan nan nan nan nan nan nan nan nan nan nan nan nan nan
256 259 254 252 257 262 264 265 270 275 276 276 276 281 287 288 289 295 299 300 300 302 303 309 311 313 314 312 311 310 310 310 310 312 nan nan nan nan nan nan nan nan nan nan nan nan nan nan nan nan nan nan nan nan nan nan nan nan nan nan nan nan nan nan nan nan nan nan nan nan nan nan nan nan nan nan nan nan nan nan nan nan nan nan nan nan nan
248 246 247 249 249 248 250 257 267 275 285 285 281 284 287 289 289 290 293 300 305 303 305 309 310 311 314 314 313 310 308 307 308 nan nan nan nan nan nan nan nan nan nan nan nan nan nan nan nan nan nan nan nan nan nan nan nan nan nan nan 346 nan nan nan nan nan nan nan nan nan nan nan nan nan nan nan nan nan nan nan nan nan nan nan nan nan nan
243 253 253 257 257 257 261 266 273 279 282 283 284 285 287 290 292 295 293 288 290 301 310 313 313 312 312 313 312 312 312 312 312 nan nan nan nan nan nan nan nan nan nan nan nan nan nan nan nan nan nan nan nan nan nan nan nan nan 341 338 nan nan nan nan nan nan 353 nan nan nan nan nan nan nan nan nan nan nan nan 8 8 nan nan nan nan nan nan
246 251 259 258 258 261 263 273 272 279 282 286 289 291 291 291 294 296 294 293 294 302 306 312 311 312 315 316 313 nan 308 314 319 nan nan nan nan nan nan nan nan nan nan nan nan nan nan nan nan nan nan nan nan nan nan nan nan nan nan nan nan nan nan nan nan nan nan nan nan nan nan nan nan nan nan nan nan nan nan nan nan nan nan nan nan nan nan
242 246 267 267 260 269 269 272 273 276 276 279 279 280 288 294 297 296 298 305 307 307 307 308 313 314 315 315 314 nan nan nan nan nan nan nan nan nan nan nan nan nan nan nan nan nan nan nan nan nan nan nan nan nan nan nan nan nan nan nan nan nan nan nan nan 349 nan nan nan nan nan nan nan nan nan nan nan nan nan nan nan nan nan nan nan nan nan
250 252 258 257 261 259 261 269 267 267 268 279 288 293 294 293 291 296 299 302 307 309 309 309 309 316 316 316 312 nan nan nan nan nan nan nan nan nan nan nan nan nan nan nan nan nan nan nan nan nan nan nan nan nan nan nan nan nan nan nan nan nan nan nan nan 353 352 353 353 nan nan nan nan nan nan nan nan nan nan nan nan nan nan nan nan nan nan
269 261 257 255 255 259 266 263 253 259 268 274 278 278 282 290 296 298 302 306 305 nan nan nan nan nan 316 nan 307 nan nan nan nan nan nan nan nan nan nan nan nan nan nan nan nan nan nan nan nan nan nan nan nan nan nan nan nan nan nan nan nan nan nan nan nan nan nan nan nan nan nan nan nan nan nan nan nan nan nan nan nan nan nan nan nan nan nan
262 274 268 250 246 250 247 262 278 275 272 270 280 284 285 286 287 288 287 287 nan nan nan nan nan nan 297 299 304 310 nan nan nan nan nan nan nan nan nan nan nan nan nan nan nan nan nan nan nan nan nan nan nan nan nan nan nan nan nan nan nan nan nan 355 nan nan nan nan nan nan nan nan nan nan nan nan 358 2 6 9 7 8 11 14 nan nan nan
265 251 251 275 282 278 259 257 nan 275 276 283 286 286 288 289 293 293 292 nan nan nan nan nan nan 302 296 294 297 nan nan nan nan nan nan nan nan nan nan nan nan nan nan nan nan nan nan nan nan nan nan nan nan nan nan nan nan nan nan nan nan nan nan nan nan nan nan nan nan nan nan nan nan nan nan 357 357 1 4 2 2 7 12 nan nan nan nan
242 246 250 260 270 nan nan 269 nan nan 272 272 280 288 293 294 295 297 298 nan nan nan nan nan nan nan nan nan nan nan nan nan nan nan nan nan nan nan nan nan nan nan nan nan nan nan nan nan nan nan nan nan nan nan nan nan nan nan nan nan nan nan nan nan nan nan nan nan nan nan nan nan nan nan 356 356 355 357 360 0 1 3 nan nan nan nan nan
252 258 266 269 274 nan nan nan nan nan nan 286 290 293 301 302 301 303 nan nan nan nan nan nan nan nan nan nan nan nan nan nan nan nan nan nan nan nan nan nan nan nan nan nan nan nan nan nan nan nan nan nan nan nan nan nan nan nan nan nan nan nan nan nan nan nan nan nan nan nan 354 356 357 353 354 355 355 355 358 0 360 360 2 nan 360 2 nan
257 258 265 270 267 nan nan nan nan nan nan nan nan nan nan nan 307 308 nan nan nan nan nan nan nan nan nan nan nan nan nan nan nan nan nan nan nan nan nan nan nan nan nan nan nan nan nan nan nan nan nan nan nan nan nan nan nan nan nan nan nan nan nan nan nan nan nan nan nan nan nan 356 nan 350 350 353 354 355 356 nan nan nan nan nan nan nan nan
266 259 255 253 nan nan nan nan nan nan nan nan nan nan nan 312 314 312 nan nan 315 nan nan nan nan nan nan nan nan nan nan nan nan nan nan nan nan nan nan nan nan nan nan nan nan nan nan nan nan nan nan nan nan nan nan nan nan nan nan nan nan nan nan nan nan nan nan 348 348 350 354 354 353 348 348 351 354 355 nan nan nan nan nan nan nan nan nan
276 264 nan nan nan nan nan nan nan nan nan nan nan nan nan nan nan nan nan 304 302 308 nan nan nan nan nan nan nan nan nan nan nan nan nan nan nan nan nan nan nan nan nan nan nan nan nan nan nan nan nan nan nan nan nan nan nan nan nan nan nan nan nan nan nan nan nan 345 348 351 351 350 349 348 349 351 352 351 351 nan nan nan nan nan nan nan nan
nan nan nan nan nan nan nan nan nan nan nan nan nan nan nan nan nan nan nan 302 nan nan nan nan nan nan nan nan nan nan nan nan nan nan nan nan nan nan nan nan nan nan nan nan nan nan nan nan nan nan nan nan nan nan nan nan nan nan nan nan nan nan nan nan nan nan nan 346 347 347 346 347 346 347 349 349 350 350 349 350 351 351 352 nan nan nan nan
nan nan nan nan nan nan nan nan nan nan nan nan nan nan nan nan nan nan nan nan nan nan nan nan nan nan nan nan nan nan nan nan nan nan nan nan nan nan nan nan nan nan nan nan nan nan nan nan nan nan nan nan nan nan nan nan nan nan nan nan nan nan nan nan nan nan nan nan nan nan nan nan nan 345 345 348 349 347 345 346 349 350 350 nan nan nan nan
nan nan nan nan nan nan nan nan nan nan nan nan nan nan nan nan nan nan nan nan nan nan nan nan nan nan nan nan nan nan nan nan nan nan nan nan nan nan nan nan nan nan nan nan nan nan nan nan nan nan nan nan nan nan nan nan nan nan nan nan nan nan nan nan nan nan 336 nan nan nan nan 344 345 343 345 346 344 344 345 nan nan nan nan nan nan nan nan
nan nan nan nan nan nan nan nan nan nan nan nan nan nan nan nan nan nan nan nan nan nan nan nan nan nan nan nan nan nan nan nan nan nan nan nan nan nan nan nan nan nan nan nan nan nan nan nan nan 341 326 nan nan nan nan nan nan nan nan nan nan nan nan nan nan nan nan nan 333 nan 339 338 339 nan 343 342 341 nan nan nan nan nan nan nan nan nan nan
nan nan nan nan nan nan nan nan nan nan nan nan nan nan nan nan nan nan nan nan nan nan nan nan nan nan nan nan nan nan nan nan nan nan nan nan nan nan nan nan nan nan nan nan nan nan nan nan nan 326 nan nan nan nan nan 335 331 320 nan nan nan nan nan nan nan nan nan nan nan nan nan nan nan nan nan nan nan nan nan nan nan nan nan nan nan nan nan
nan nan nan nan nan nan nan nan nan nan nan nan nan nan nan nan nan nan nan nan nan nan nan nan nan nan nan nan nan nan nan nan nan nan nan nan nan nan nan nan nan nan nan nan nan nan nan nan nan nan nan nan nan nan nan 329 332 317 318 319 321 322 nan nan nan nan nan nan nan nan nan nan nan nan nan nan nan nan nan nan nan nan nan nan nan nan nan
nan nan nan nan nan nan nan nan nan nan nan nan nan nan nan nan nan nan nan nan nan nan nan nan nan nan nan nan nan nan nan nan nan nan nan nan nan nan nan nan nan nan nan nan nan nan nan nan 322 nan nan nan nan nan nan nan 323 317 nan nan nan nan nan nan nan nan nan nan nan 339 nan nan nan nan nan nan nan nan nan nan nan nan nan nan nan nan nan
nan nan nan nan nan nan nan nan nan nan nan nan nan nan nan nan nan nan nan nan nan nan nan nan nan nan nan nan nan nan nan nan nan nan nan nan nan nan nan nan nan nan nan nan nan nan nan 330 325 nan nan nan nan nan nan nan 322 nan nan nan nan nan nan nan nan nan nan nan nan nan nan nan nan nan nan nan nan nan nan nan nan nan nan nan nan nan nan
nan nan nan nan nan nan nan nan nan nan nan nan nan nan nan nan nan nan nan nan nan nan nan nan nan nan nan nan nan nan nan nan nan nan nan nan nan nan nan nan nan nan nan nan nan nan nan nan 332 331 nan nan nan nan 331 nan nan nan nan nan nan nan nan nan nan nan nan nan nan nan nan nan nan nan nan nan nan nan nan nan nan nan nan nan nan nan nan
nan nan nan nan nan nan nan nan nan nan nan nan nan nan nan nan nan nan nan nan nan nan nan nan nan nan nan nan nan nan nan nan nan nan nan nan nan nan nan nan nan nan nan nan nan nan nan nan nan nan 337 333 nan nan 336 323 320 nan nan nan nan nan nan nan nan nan nan nan nan nan nan nan nan nan nan nan nan nan nan nan nan nan nan nan nan nan nan
nan nan nan nan nan nan nan nan nan nan nan nan nan nan nan nan nan nan nan nan nan nan nan nan nan nan nan nan nan nan nan nan nan nan nan nan nan nan nan nan nan nan nan nan nan nan nan nan nan nan 349 349 346 344 331 nan nan nan nan nan nan nan nan nan nan nan nan nan nan nan nan nan nan nan nan nan nan nan nan nan nan nan nan nan nan nan nan
nan nan nan nan nan nan nan nan nan nan nan nan nan nan nan nan nan nan nan nan nan nan nan nan nan nan nan nan nan nan nan nan nan nan nan nan nan nan nan nan nan nan nan 335 328 nan nan nan nan 352 349 351 352 350 335 330 327 nan nan nan nan nan nan nan nan nan nan nan nan nan nan nan nan nan nan nan nan nan nan nan nan nan nan nan nan nan nan
nan nan nan nan nan nan nan nan nan nan nan nan nan nan nan nan nan nan nan nan nan nan nan nan nan nan nan nan nan nan nan nan nan nan nan nan nan nan nan nan nan nan nan 340 326 330 nan 344 350 351 354 354 354 344 337 336 336 334 331 328 326 325 323 321 nan nan nan nan nan nan nan nan nan nan nan nan nan nan nan nan nan nan nan nan nan nan nan
nan nan nan nan nan nan nan nan nan nan nan nan nan nan nan nan nan nan nan nan nan nan nan nan nan nan nan nan nan nan nan nan nan nan nan nan nan nan nan 325 326 334 334 328 328 331 333 338 344 349 351 355 354 340 339 339 339 337 335 333 332 332 331 nan nan 323 322 nan nan nan nan nan nan nan nan nan nan nan nan nan nan nan nan nan nan nan nan
nan nan nan nan nan nan nan nan nan nan nan nan nan nan nan nan nan nan nan nan nan nan nan nan nan nan nan nan nan nan nan nan nan nan nan nan nan nan nan nan nan 329 332 332 336 335 346 349 347 347 349 351 346 341 341 341 nan nan nan nan nan nan nan nan 331 330 332 nan nan nan nan nan nan nan nan nan nan nan nan nan nan nan nan nan nan nan nan
nan nan nan nan nan nan nan nan nan nan nan nan nan nan nan nan nan nan nan nan nan nan nan nan nan nan nan nan nan nan nan nan nan nan nan nan nan nan nan nan 338 342 330 324 327 329 338 348 351 350 351 348 341 341 341 342 341 341 343 nan nan nan nan nan nan nan nan nan nan nan nan nan nan nan nan nan nan nan nan nan nan nan nan nan nan nan nan
nan nan nan nan nan nan nan nan nan nan nan nan nan nan nan nan nan nan nan nan nan nan nan nan nan nan nan nan nan nan nan nan nan nan nan 321 322 322 324 324 325 331 332 327 327 331 335 346 345 344 342 339 340 340 341 341 342 343 344 343 341 nan nan nan nan nan nan nan nan nan nan nan nan nan 336 334 334 333 nan nan nan nan nan nan nan nan nan
nan nan nan nan nan nan nan nan nan nan nan nan nan nan nan nan nan nan nan nan nan nan nan nan nan nan nan nan nan nan nan nan nan nan nan 330 328 329 329 328 329 328 329 329 330 333 333 333 333 335 335 336 337 339 339 340 342 343 341 339 341 342 345 nan nan nan nan nan nan nan nan nan nan nan 340 339 339 337 335 333 nan nan nan nan nan nan nan
nan nan nan nan nan nan nan nan nan nan nan nan nan nan nan nan nan nan nan 324 nan nan nan nan nan nan nan nan nan nan nan nan 330 331 331 331 330 330 333 335 332 333 333 332 334 334 334 334 332 333 333 333 334 336 338 343 342 339 338 340 340 343 nan nan nan nan nan nan nan nan nan nan nan nan nan 344 342 341 nan nan nan nan nan nan nan nan nan